This demonstration page uses our WeatherBlox Daily Observations layout. Learn more.

Left ArrowRight Arrow

44.89941, -97.11507

Hourly Observations for April 1, 2016

Temp ( °F °C ) Dew Point ( °F °C ) Humidity (%) Winds ( mph kmh ) Pressure ( in mb ) Visibility ( mi km ) Precip ( " mm )
12:53 am 00:53 Cloudy 37 2.8 29 -1.7 73 73 N 15 24 29.81 1009 10 16 0.00 0.00
1:53 am 01:53 Cloudy 33 0.6 25 -3.9 72 72 N 14 22 29.84 1010 10 16 0.00 0.00
2:53 am 02:53 Clear 29 -1.7 21 -6.1 72 72 N 14 22 29.86 1011 10 16 0.00 0.00
3:53 am 03:53 Clear 27 -2.8 21 -6.1 78 78 NNW 10 17 29.87 1012 10 16 0.00 0.00
4:53 am 04:53 Clear 26 -3.3 20 -6.7 78 78 N 12 19 29.88 1012 10 16 0.00 0.00
5:53 am 05:53 Clear 26 -3.3 20 -6.7 78 78 N 12 19 29.90 1013 10 16 0.00 0.00
6:53 am 06:53 Partly Cloudy 25 -3.9 20 -6.7 81 81 N 10 17 29.94 1014 10 16 0.00 0.00
7:17 am 07:17 Mostly Cloudy 26 -3.3 21 -6.1 81 81 N 13 20 30.03 1017 10 16 0.00 0.00
7:53 am 07:53 Cloudy 28 -2.2 22 -5.6 78 78 N 15 24 29.97 1015 10 16 0.00 0.00
8:09 am 08:09 Cloudy 28 -2.2 22 -5.6 78 78 N 16 26 30.06 1018 10 16 0.00 0.00
8:38 am 08:38 Cloudy 28 -2.2 20 -6.7 72 72 N 18 30 30.06 1018 10 16 0.00 0.00
8:53 am 08:53 Cloudy 29 -1.7 19 -7.2 66 66 N 18 30 30.00 1016 10 16 0.00 0.00
9:43 am 09:43 Cloudy 28 -2.2 13 -10.6 53 53 N 18 30 30.09 1019 10 16 0.00 0.00
9:53 am 09:53 Cloudy 30 -1.1 13 -10.6 49 49 N 20 31 30.02 1017 10 16 0.00 0.00
10:16 am 10:16 Cloudy 29 -1.7 13 -10.6 51 51 N 22 35 30.09 1019 10 16 0.00 0.00
10:53 am 10:53 Cloudy 31 -0.6 14 -10 49 49 N 22 35 30.05 1018 10 16 0.00 0.00
11:53 am 11:53 Cloudy 32 0 10 -12.2 40 40 N 23 37 30.07 1018 10 16 0.00 0.00
12:53 pm 12:53 Mostly Cloudy 36 2.2 13 -10.6 39 39 NNW 24 39 30.05 1018 10 16 0.00 0.00
1:53 pm 13:53 Mostly Sunny 36 2.2 9 -12.8 32 32 NNW 24 39 30.05 1018 10 16 0.00 0.00
2:53 pm 14:53 Sunny 37 2.8 9 -12.8 31 31 NW 21 33 30.05 1018 10 16 0.00 0.00
3:53 pm 15:53 Mostly Sunny 38 3.3 11 -11.7 33 33 NW 15 24 30.03 1017 10 16 0.00 0.00
4:53 pm 16:53 Sunny 38 3.3 12 -11.1 34 34 WNW 17 28 30.00 1016 10 16 0.00 0.00
5:53 pm 17:53 Sunny 38 3.3 12 -11.1 34 34 W 17 28 29.98 1015 10 16 0.00 0.00
6:53 pm 18:53 Mostly Cloudy 36 2.2 15 -9.4 42 42 W 17 28 29.96 1015 10 16 0.00 0.00
7:53 pm 19:53 Partly Cloudy 36 2.2 17 -8.3 46 46 W 16 26 29.93 1014 10 16 0.00 0.00
8:53 pm 20:53 Cloudy 36 2.2 20 -6.7 52 52 WSW 13 20 29.91 1013 10 16 0.00 0.00
9:53 pm 21:53 Cloudy 37 2.8 22 -5.6 54 54 WSW 13 20 29.88 1012 10 16 0.00 0.00
10:53 pm 22:53 Cloudy 38 3.3 22 -5.6 52 52 WSW 14 22 29.81 1010 10 16 0.00 0.00
11:53 pm 23:53 Cloudy 38 3.3 24 -4.4 57 57 WSW 12 19 29.78 1009 10 16 0.00 0.00

Powered by AerisWeather